TimeCDT,TemperatureF,Dew PointF,Humidity,Sea Level PressureIn,VisibilityMPH,Wind Direction,Wind SpeedMPH,Gust SpeedMPH,PrecipitationIn,Events,Conditions,WindDirDegrees,DateUTC
12:15 AM,48.2,48.2,100,29.85,10.0,WNW,13.8,-,0.00,,Overcast,300,2012-10-24 05:15:00
12:35 AM,48.2,46.4,93,29.85,10.0,WNW,17.3,-,0.00,,Overcast,300,2012-10-24 05:35:00
12:55 AM,48.2,46.4,93,29.85,10.0,WNW,15.0,19.6,0.00,,Overcast,300,2012-10-24 05:55:00
1:35 AM,46.4,44.6,93,29.88,10.0,WNW,15.0,19.6,0.00,,Mostly Cloudy,300,2012-10-24 06:35:00
1:55 AM,46.4,44.6,93,29.87,10.0,NW,13.8,-,0.00,,Mostly Cloudy,310,2012-10-24 06:55:00
2:15 AM,44.6,44.6,100,29.90,10.0,West,9.2,-,0.00,,Partly Cloudy,280,2012-10-24 07:15:00
2:35 AM,44.6,44.6,100,29.86,10.0,NNW,11.5,-,0.00,,Mostly Cloudy,330,2012-10-24 07:35:00
2:55 AM,44.6,42.8,93,29.84,10.0,North,6.9,-,0.00,,Overcast,10,2012-10-24 07:55:00
3:15 AM,44.6,42.8,93,29.86,10.0,NNW,8.1,-,0.00,,Overcast,340,2012-10-24 08:15:00
3:35 AM,44.6,41.0,87,29.88,10.0,NW,5.8,-,0.00,,Mostly Cloudy,320,2012-10-24 08:35:00
3:55 AM,44.6,41.0,87,29.90,10.0,SW,3.5,-,0.00,,Clear,230,2012-10-24 08:55:00
4:15 AM,44.6,41.0,87,29.90,10.0,NW,8.1,-,0.00,,Mostly Cloudy,310,2012-10-24 09:15:00
4:35 AM,44.6,39.2,81,29.89,10.0,NW,9.2,-,0.00,,Overcast,320,2012-10-24 09:35:00
4:55 AM,42.8,39.2,87,29.88,10.0,NNW,11.5,-,0.00,,Scattered Clouds,330,2012-10-24 09:55:00
5:15 AM,42.8,39.2,87,29.89,10.0,NNW,8.1,-,0.00,,Clear,330,2012-10-24 10:15:00
5:35 AM,42.8,39.2,87,29.90,10.0,NW,11.5,-,0.00,,Partly Cloudy,310,2012-10-24 10:35:00
5:55 AM,42.8,39.2,87,29.92,10.0,NW,8.1,-,0.00,,Partly Cloudy,310,2012-10-24 10:55:00
6:15 AM,42.8,37.4,81,29.93,10.0,NW,6.9,-,0.00,,Clear,310,2012-10-24 11:15:00
6:35 AM,42.8,37.4,81,29.93,10.0,NW,4.6,-,0.00,,Partly Cloudy,320,2012-10-24 11:35:00
6:55 AM,42.8,37.4,81,29.94,10.0,NW,5.8,-,0.00,,Clear,320,2012-10-24 11:55:00
7:15 AM,42.8,37.4,81,29.96,10.0,NW,8.1,-,0.00,,Partly Cloudy,310,2012-10-24 12:15:00
7:55 AM,42.8,39.2,87,29.97,10.0,WNW,3.5,-,0.00,,Mostly Cloudy,300,2012-10-24 12:55:00
8:15 AM,42.8,39.2,87,29.97,10.0,NW,6.9,-,0.00,,Partly Cloudy,310,2012-10-24 13:15:00
8:35 AM,42.8,37.4,81,29.97,10.0,NW,10.4,-,0.00,,Scattered Clouds,310,2012-10-24 13:35:00
8:55 AM,42.8,35.6,76,29.97,10.0,NW,12.7,-,0.00,,Scattered Clouds,310,2012-10-24 13:55:00
9:15 AM,41.0,37.4,87,29.96,10.0,NNW,8.1,-,0.00,,Mostly Cloudy,330,2012-10-24 14:15:00
9:35 AM,41.0,37.4,87,29.96,10.0,NW,12.7,-,0.00,,Mostly Cloudy,320,2012-10-24 14:35:00
9:55 AM,39.2,35.6,87,29.96,10.0,NW,16.1,-,0.00,,Mostly Cloudy,320,2012-10-24 14:55:00
10:15 AM,39.2,35.6,87,29.96,10.0,NNW,15.0,-,0.00,,Scattered Clouds,330,2012-10-24 15:15:00
10:35 AM,39.2,35.6,87,29.96,10.0,NNW,13.8,20.7,0.00,,Scattered Clouds,330,2012-10-24 15:35:00
10:55 AM,39.2,35.6,87,29.96,10.0,NNW,16.1,-,0.00,,Scattered Clouds,330,2012-10-24 15:55:00
11:15 AM,39.2,35.6,87,29.97,10.0,NNW,15.0,-,0.00,,Mostly Cloudy,340,2012-10-24 16:15:00
11:35 AM,39.2,35.6,87,29.98,10.0,NNW,15.0,-,0.00,,Mostly Cloudy,340,2012-10-24 16:35:00
11:55 AM,39.2,35.6,87,29.97,10.0,NNW,12.7,-,0.00,,Mostly Cloudy,340,2012-10-24 16:55:00
12:15 PM,39.2,35.6,87,29.98,10.0,NNW,11.5,-,0.00,,Scattered Clouds,330,2012-10-24 17:15:00
12:35 PM,39.2,35.6,87,29.98,10.0,NNW,12.7,-,0.00,,Clear,340,2012-10-24 17:35:00
12:55 PM,39.2,35.6,87,29.98,10.0,NW,12.7,-,0.00,,Scattered Clouds,320,2012-10-24 17:55:00
1:15 PM,39.2,35.6,87,29.98,10.0,NNW,13.8,-,0.00,,Mostly Cloudy,340,2012-10-24 18:15:00
1:35 PM,39.2,35.6,87,29.98,10.0,NNW,13.8,-,0.00,,Mostly Cloudy,330,2012-10-24 18:35:00
2:15 PM,39.2,35.6,87,29.97,10.0,NNW,15.0,19.6,0.00,,Mostly Cloudy,330,2012-10-24 19:15:00
2:35 PM,39.2,35.6,87,29.96,10.0,NNW,15.0,19.6,0.00,,Mostly Cloudy,330,2012-10-24 19:35:00
2:55 PM,39.2,35.6,87,29.95,10.0,NNW,17.3,-,0.00,,Mostly Cloudy,330,2012-10-24 19:55:00
3:15 PM,39.2,35.6,87,29.95,10.0,NNW,17.3,-,0.00,,Mostly Cloudy,330,2012-10-24 20:15:00
3:35 PM,39.2,35.6,87,29.94,10.0,NNW,18.4,-,0.00,,Scattered Clouds,330,2012-10-24 20:35:00
4:15 PM,39.2,35.6,87,29.95,10.0,North,11.5,-,0.00,,Scattered Clouds,350,2012-10-24 21:15:00
4:35 PM,39.2,35.6,87,29.96,10.0,North,11.5,-,0.00,,Scattered Clouds,350,2012-10-24 21:35:00
4:55 PM,39.2,35.6,87,29.95,10.0,North,15.0,-,0.00,,Partly Cloudy,350,2012-10-24 21:55:00
5:15 PM,39.2,33.8,81,29.95,10.0,North,13.8,-,0.00,,Clear,350,2012-10-24 22:15:00
5:35 PM,39.2,33.8,81,29.95,10.0,North,13.8,-,0.00,,Scattered Clouds,350,2012-10-24 22:35:00
5:55 PM,39.2,35.6,87,29.96,10.0,North,12.7,-,0.00,,Scattered Clouds,350,2012-10-24 22:55:00
6:15 PM,39.2,35.6,87,29.97,10.0,North,11.5,-,0.00,,Partly Cloudy,350,2012-10-24 23:15:00
6:35 PM,39.2,33.8,81,29.98,10.0,NNW,13.8,-,0.00,,Mostly Cloudy,340,2012-10-24 23:35:00
6:55 PM,37.4,33.8,87,29.98,10.0,NNW,11.5,-,0.00,,Scattered Clouds,340,2012-10-24 23:55:00
7:15 PM,37.4,33.8,87,29.98,10.0,NNW,11.5,-,0.00,,Partly Cloudy,340,2012-10-25 00:15:00
7:35 PM,37.4,33.8,87,29.99,10.0,NNW,13.8,19.6,0.00,,Partly Cloudy,340,2012-10-25 00:35:00
7:55 PM,37.4,33.8,87,30.00,10.0,NNW,13.8,18.4,0.00,,Mostly Cloudy,340,2012-10-25 00:55:00
8:15 PM,37.4,32.0,81,30.02,10.0,NNW,12.7,-,0.00,,Overcast,340,2012-10-25 01:15:00
8:35 PM,37.4,33.8,87,30.03,9.0,NNW,16.1,-,0.00,,Overcast,330,2012-10-25 01:35:00
8:55 PM,35.6,33.8,93,30.01,5.0,NNW,16.1,-,0.00,,Overcast,340,2012-10-25 01:55:00
9:15 PM,35.6,33.8,93,30.01,10.0,North,11.5,-,0.00,,Scattered Clouds,350,2012-10-25 02:15:00
9:35 PM,35.6,32.0,87,30.01,10.0,NNW,12.7,-,0.00,,Mostly Cloudy,340,2012-10-25 02:35:00
9:55 PM,35.6,32.0,87,30.01,10.0,NNW,11.5,-,0.00,,Mostly Cloudy,340,2012-10-25 02:55:00
10:15 PM,35.6,32.0,87,30.01,10.0,North,11.5,-,0.00,,Clear,350,2012-10-25 03:15:00
10:35 PM,35.6,32.0,87,30.02,10.0,NNW,10.4,-,0.00,,Partly Cloudy,340,2012-10-25 03:35:00
10:55 PM,35.6,32.0,87,30.02,10.0,NNW,12.7,-,0.00,,Partly Cloudy,340,2012-10-25 03:55:00
11:15 PM,35.6,32.0,87,30.02,10.0,NNW,15.0,-,0.00,,Clear,340,2012-10-25 04:15:00
11:55 PM,35.6,30.2,81,30.02,10.0,North,15.0,-,0.00,,Scattered Clouds,350,2012-10-25 04:55:00